Location: Shades State Park
(39.9310°N, 87.0690°W)
Time: 11:51:44
(UTC-04:00)

ISS - Visible Passes

Search period start: 23 July 2014 00:00
Search period end: 02 August 2014 00:00
Orbit: 411 x 419 km, 51.6° (Epoch: 23 July)

Date Brightness Start Highest point End Pass type
(mag) Time Alt. Az. Time Alt. Az. Time Alt. Az.
23 Jul -1.7 03:48:38 35° N 03:48:38 35° N 03:51:04 10° NE visible
23 Jul -0.5 05:23:27 10° NW 05:25:15 14° NNW 05:27:04 10° NNE visible
24 Jul -0.4 03:01:31 17° NE 03:01:31 17° NE 03:02:23 10° NE visible
24 Jul -0.7 04:34:23 12° NW 04:36:13 17° NNW 04:38:29 10° NNE visible
25 Jul -1.0 03:47:15 21° NNW 03:47:15 21° NNW 03:49:54 10° NNE visible
25 Jul -0.2 05:23:46 10° NNW 05:24:57 11° N 05:26:08 10° NNE visible
26 Jul -0.4 03:00:06 18° NNE 03:00:06 18° NNE 03:01:18 10° NE visible
26 Jul -0.3 04:34:23 10° NW 04:35:51 12° N 04:37:19 10° NNE visible
26 Jul -0.3 06:11:53 10° NNW 06:13:43 14° NNE 06:15:33 10° NE visible
27 Jul -0.4 03:45:47 13° NNW 03:46:47 14° NNW 03:48:41 10° NNE visible
27 Jul -0.2 05:23:13 10° NNW 05:24:39 12° N 05:26:04 10° NNE visible
28 Jul -0.2 02:58:37 16° N 02:58:37 16° N 03:00:05 10° NNE visible
28 Jul -0.1 04:34:23 10° NNW 04:35:33 11° N 04:36:43 10° NNE visible
28 Jul -0.5 06:10:39 10° NNW 06:13:17 21° NNE 06:15:54 10° ENE visible
29 Jul 0.2 02:11:27 10° NNE 02:11:27 10° NNE 02:11:30 10° NNE visible
29 Jul 0.0 03:45:14 10° NNW 03:46:27 12° N 03:47:39 10° NNE visible
29 Jul -0.2 05:22:04 10° NNW 05:24:16 16° NNE 05:26:28 10° ENE visible
30 Jul 0.0 02:57:09 12° NNW 02:57:21 13° N 02:58:53 10° NNE visible
30 Jul -0.1 04:33:28 10° NNW 04:35:13 13° NNE 04:36:58 10° NE visible
30 Jul -1.7 06:09:27 10° NW 06:12:39 39° NNE 06:15:50 10° ESE visible
31 Jul 0.3 02:10:03 11° NNE 02:10:03 11° NNE 02:10:15 10° NNE visible
31 Jul 0.1 03:44:47 10° NNW 03:46:08 12° N 03:47:29 10° NNE visible
31 Jul -0.9 05:20:49 10° NW 05:23:45 27° NNE 05:26:39 10° E visible
01 Aug 0.2 02:55:55 10° NNW 02:57:01 11° N 02:58:10 10° NNE visible
01 Aug -0.4 04:32:13 10° NNW 04:34:46 20° NNE 04:37:19 10° ENE visible
01 Aug -3.3 06:08:27 10° NW 06:11:49 78° SW 06:15:10 10° SE visible
01 Aug -0.8 22:50:09 10° SW 22:50:30 13° SSW 22:50:30 13° SSW visible
